Estación de Casablanca

Ultimos registro cada 15 minutos 66
Estación Fecha / Hora Temperatura Humedad Lluvia Velocidad Dirección Radiación Presion
66 Casablanca 03-05-2026 16:15 20,7 20,2 0 1 274 91,9 987,8
65 Casablanca 03-05-2026 16:00 21 27,9 0 1 281 75,6 987,7
64 Casablanca 03-05-2026 15:45 21,7 37,9 0 1 278 83,1 987,5
63 Casablanca 03-05-2026 15:30 23 36,8 0 1 282 75,6 987,2
62 Casablanca 03-05-2026 15:15 23,5 37,5 0 1 275 75,6 987,3
61 Casablanca 03-05-2026 15:00 24,1 36,1 0 0,5 268 334,4 987
60 Casablanca 03-05-2026 14:45 25 32,5 0 0,5 274 145,6 987
59 Casablanca 03-05-2026 14:30 24,5 29,7 0 0,5 274 460,6 987,2
58 Casablanca 03-05-2026 14:15 25,1 26,3 0 1 274 75,6 987,3
57 Casablanca 03-05-2026 14:00 25,1 24,6 0 1 268 71,9 987,2
56 Casablanca 03-05-2026 13:45 25,5 23,7 0 1 271 585,6 987,5
55 Casablanca 03-05-2026 13:30 26,1 23,9 0 1 279 595,6 987,4
54 Casablanca 03-05-2026 13:15 26,3 23 0 0,5 275 149,4 987,3
53 Casablanca 03-05-2026 13:00 25,3 26,8 0 0,5 285 608,1 987,4
52 Casablanca 03-05-2026 12:45 24,7 31,6 0 0,5 286 613,1 987,7
51 Casablanca 03-05-2026 12:30 24,1 36 0 0,5 291 610,6 987,9
50 Casablanca 03-05-2026 12:15 22,8 43 0 0,5 277 604,4 988
49 Casablanca 03-05-2026 12:00 22,5 46,3 0 1 272 590,6 988,1
48 Casablanca 03-05-2026 11:45 23,2 45,7 0 0,5 275 578,1 988
47 Casablanca 03-05-2026 11:30 22,6 46,6 0 0 234 565,6 988,3
46 Casablanca 03-05-2026 11:15 22,1 46,9 0 0 323 548,1 988,3
45 Casablanca 03-05-2026 11:00 20,8 49,7 0 0 21 526,9 988,1
44 Casablanca 03-05-2026 10:45 18 54,6 0 0 251 500,6 988,6
43 Casablanca 03-05-2026 10:30 15,6 59,2 0 0 341 473,1 988,5
42 Casablanca 03-05-2026 10:15 14,8 61,6 0 0 331 443,1 988,4
41 Casablanca 03-05-2026 10:00 12,6 67,2 0 0 319 408,1 988,4
40 Casablanca 03-05-2026 09:45 11 72,1 0 0 316 370,6 988,7
39 Casablanca 03-05-2026 09:30 8,8 75,6 0 0 316 331,9 988,5
38 Casablanca 03-05-2026 09:15 7,3 79,6 0 0 316 289,4 988,6
37 Casablanca 03-05-2026 09:00 6,4 81,7 0 0 302 249,4 988,3
36 Casablanca 03-05-2026 08:45 5,6 84,4 0 0 300 208,1 988,4
35 Casablanca 03-05-2026 08:30 4 92,1 0 0 300 165,6 988,1
34 Casablanca 03-05-2026 08:15 1,9 96,2 0 0 300 23,1 988
33 Casablanca 03-05-2026 08:00 1 97,2 0 0 300 70,6 987,9
32 Casablanca 03-05-2026 07:45 -0,7 97,3 0 0 300 33,1 987,8
31 Casablanca 03-05-2026 07:30 -0,7 96,4 0 0 300 4,4 988
30 Casablanca 03-05-2026 07:15 0,1 97,1 0 0 300 0,6 987,6
29 Casablanca 03-05-2026 07:00 -0,5 96,7 0 0 300 0,6 987,7
28 Casablanca 03-05-2026 06:45 -0,5 96,2 0 0 271 0,6 987,3
27 Casablanca 03-05-2026 06:30 -0,1 96,2 0 0 270 0,6 987,2
26 Casablanca 03-05-2026 06:15 0,7 96,1 0 0 270 0,6 987,4
25 Casablanca 03-05-2026 06:00 1,5 96,5 0 0 270 0,6 987,4
24 Casablanca 03-05-2026 05:45 0,8 96,6 0 0 303 0,6 987,4
23 Casablanca 03-05-2026 05:30 0,2 96,4 0 0 305 0,6 987,5
22 Casablanca 03-05-2026 05:15 0,3 96,1 0 0 305 0,6 987,4
21 Casablanca 03-05-2026 05:00 0,4 96,4 0 0 305 0,6 987,1
20 Casablanca 03-05-2026 04:45 0,1 96,1 0 0 305 0,6 987,1
19 Casablanca 03-05-2026 04:30 0,2 95,7 0 0 243 0,6 987
18 Casablanca 03-05-2026 04:15 0,1 95,2 0 0 240 0,6 987,3
17 Casablanca 03-05-2026 04:00 1,5 95,1 0 0 240 0,6 987,3
16 Casablanca 03-05-2026 03:45 1,4 94,7 0 0 240 0,6 987,5
15 Casablanca 03-05-2026 03:30 1 93,4 0 0 240 0,6 987,8
14 Casablanca 03-05-2026 03:15 1,4 92,9 0 0 240 0,6 987,7
13 Casablanca 03-05-2026 03:00 2,1 91,9 0 0 240 0,6 988,1
12 Casablanca 03-05-2026 02:45 1,9 90,3 0 0 240 0,6 988,3
11 Casablanca 03-05-2026 02:30 3,7 87,9 0 0 240 0,6 988,3
10 Casablanca 03-05-2026 02:15 4,8 87,9 0 0 240 0,6 988,2
9 Casablanca 03-05-2026 02:00 4,3 90 0 0 336 0,6 988,1
8 Casablanca 03-05-2026 01:45 3,8 89,6 0 0 358 0,6 987,9
7 Casablanca 03-05-2026 01:30 3,6 88,6 0 0 303 0,6 987,9
6 Casablanca 03-05-2026 01:15 4 88 0 0 298 0,6 987,7
5 Casablanca 03-05-2026 01:00 4 87,8 0 0 291 0,6 987,5
4 Casablanca 03-05-2026 00:45 3,9 88,4 0 0 272 0,6 987,7
3 Casablanca 03-05-2026 00:30 3,9 87,6 0 0 236 0,6 987,6
2 Casablanca 03-05-2026 00:15 4,2 84,7 0 0 229 0,6 987,6
1 Casablanca 03-05-2026 00:00 5,6 83,9 0 0 227 0,6 987,7